Location: Lane
(33.5226°N, 79.8788°W)
Time: 21:59:35
(UTC+00:00)

Vanguard 2 Rocket - Pass Details

Date: 06 October 2022
Orbit: 555 x 3321 km, 32.9° (Epoch: 28 November)

Event Time Altitude Azimuth Distance (km) Brightness Sun altitude
Rises 02:53:28 0° 243° (WSW) 7,249 11.8 -47.8°
Reaches altitude 10° 02:58:38 10° 242° (WSW) 6,080 11.2 -48.7°
Enters shadow 03:10:15 44° 231° (SW) 3,407 9.6 -50.6°
